Location: Sternwarte ZA, Rosenfeld-Brittheim
(48.2889°N, 8.6789°E)
Time: 14:46:15
(UTC+01:00)

Amateur Radio Satellites - All Passes

Search period start: 23 January 2018 14:16
Search period end: 24 January 2018 14:16
Location: Sternwarte ZA, Rosenfeld-Brittheim, 48.2889°N, 8.6789°E

Satellite Date Start Highest point End Downlink Frequencies (MHz)
Time Altitude Azimuth
MOZHAYETS 4 23 Jan 14:20:59 14:23:03 13° 87° (E) 14:25:06
50 SAT 23 Jan 14:28:53 14:32:00 67° 102° (ESE) 14:35:06 437.505
AO-7 23 Jan 14:32:08 14:40:29 79° 68° (ENE) 14:48:54 .
PCSat 23 Jan 14:48:38 14:49:45 11° 7° (N) 14:50:52 145.827
BEESAT 23 Jan 14:52:04 14:54:47 15° 89° (E) 14:57:30 436.000
SPROUT 23 Jan 14:55:30 14:56:19 10° 304° (NW) 14:57:08 437.525
ITAMSAT 1 23 Jan 14:58:40 15:03:45 64° 71° (ENE) 15:08:53 435.822/435.867
UKube-1 23 Jan 15:06:06 15:10:26 83° 286° (WNW) 15:14:44 .
RS-15 23 Jan 15:09:50 15:21:27 51° 33° (NNE) 15:32:26 29.354- 29.394
SO-50 23 Jan 15:13:08 15:15:34 14° 250° (WSW) 15:18:02 436.795
AO-85 23 Jan 15:14:00 15:15:28 11° 348° (NNW) 15:16:59 145.980
VELOX 1 23 Jan 15:18:10 15:19:46 12° 304° (NW) 15:21:22 145.980
DX 1 23 Jan 15:23:58 15:27:56 36° 293° (WNW) 15:31:55 434.975-435.025
M-CUBED/EXP-1 PRIME 23 Jan 15:36:44 15:40:46 46° 65° (ENE) 15:44:31 437.505
DOVE 4 23 Jan 15:37:02 15:40:50 34° 68° (ENE) 15:44:34 437.250
HO-68 23 Jan 15:45:11 15:47:44 12° 40° (NE) 15:50:16 435.675
ITUPSAT 1 23 Jan 15:50:30 15:55:11 49° 100° (E) 15:59:51 437.325
MOZHAYETS 4 23 Jan 15:56:10 16:00:50 83° 283° (WNW) 16:05:26
CUBESAT XI-V 23 Jan 16:06:27 16:10:43 36° 96° (E) 16:14:56 437.345
BEESAT 3 23 Jan 16:16:40 16:19:43 21° 35° (NE) 16:22:44 437.485
NO-84 23 Jan 16:24:16 16:26:52 24° 137° (SE) 16:29:20 435.350 FM
KAITUO 1B 23 Jan 16:25:13 16:26:36 12° 60° (ENE) 16:27:58 145.475/437.950
AO-7 23 Jan 16:27:18 16:34:05 27° 268° (W) 16:40:57 .
BEESAT 23 Jan 16:28:18 16:33:07 76° 287° (WNW) 16:37:54 436.000
XW-2F 23 Jan 16:30:29 16:32:59 17° 63° (ENE) 16:35:29 145.980 - 146.000
NUDT-PHONESAT 23 Jan 16:30:49 16:32:28 13° 61° (ENE) 16:34:06 437.300
PCSat 23 Jan 16:31:16 16:35:22 21° 32° (NNE) 16:39:27 145.827
ITAMSAT 1 23 Jan 16:39:57 16:43:40 20° 269° (W) 16:47:25 435.822/435.867
XW-2D 23 Jan 16:41:53 16:44:59 24° 66° (ENE) 16:48:05 145.860 - 145.880
UKube-1 23 Jan 16:44:14 16:45:44 12° 304° (NW) 16:47:13 .
CUTE-I 23 Jan 16:51:31 16:56:14 34° 64° (ENE) 17:00:58 437.470
AO-85 23 Jan 16:56:18 16:57:59 12° 13° (NNE) 16:59:42 145.980
XW-2B 23 Jan 16:59:08 17:02:37 34° 69° (ENE) 17:06:06 145.730 - 145.750
KKS-1 23 Jan 17:05:57 17:09:26 22° 93° (E) 17:12:55 437.445
BEESAT 2 23 Jan 17:11:15 17:14:24 21° 35° (NE) 17:17:32 435.950
M-CUBED/EXP-1 PRIME 23 Jan 17:12:12 17:15:17 20° 260° (W) 17:18:14 437.505
SEEDS 23 Jan 17:13:14 17:14:44 12° 58° (ENE) 17:16:13 437.485
DOVE 4 23 Jan 17:15:07 17:18:36 25° 266° (W) 17:22:03 437.250
STARS 23 Jan 17:15:39 17:17:03 11° 87° (E) 17:18:28 437.465
RS-15 23 Jan 17:22:57 17:34:35 69° 241° (WSW) 17:45:36 29.354- 29.394
HO-68 23 Jan 17:27:02 17:33:44 45° 62° (ENE) 17:40:27 435.675
ITUPSAT 1 23 Jan 17:28:51 17:32:44 25° 298° (WNW) 17:36:36 437.325
CUTE 1.7 + AOD 2 23 Jan 17:28:55 17:32:25 25° 65° (ENE) 17:35:54 437.475
XW-2C 23 Jan 17:29:16 17:33:06 77° 73° (ENE) 17:36:55 145.795 - 145.815
LilacSat-2 23 Jan 17:30:37 17:34:28 86° 76° (ENE) 17:38:21 437.200
MOZHAYETS 4 23 Jan 17:35:14 17:37:13 13° 304° (NW) 17:39:13
CUBESAT XI-V 23 Jan 17:43:59 17:47:59 29° 295° (WNW) 17:51:57 437.345
BEESAT 3 23 Jan 17:53:42 17:57:37 67° 235° (SW) 18:01:27 437.485
KAITUO 1B 23 Jan 17:56:16 18:00:01 73° 258° (WSW) 18:03:47 145.475/437.950
NO-84 23 Jan 18:00:55 18:03:52 49° 334° (NNW) 18:06:41 435.350 FM
NUDT-PHONESAT 23 Jan 18:02:05 18:05:47 67° 258° (WSW) 18:09:31 437.300
XW-2F 23 Jan 18:03:04 18:06:45 47° 261° (W) 18:10:26 145.980 - 146.000
BEESAT 23 Jan 18:08:06 18:10:04 12° 306° (NW) 18:12:02 436.000
CUBEBUG 2 23 Jan 18:08:54 18:13:05 42° 69° (ENE) 18:17:26 437.445
UWE-3 23 Jan 18:08:55 18:12:40 26° 64° (ENE) 18:16:29 435.000/436.395/437.385
PCSat 23 Jan 18:14:10 18:19:39 79° 55° (NE) 18:25:04 145.827
XW-2D 23 Jan 18:15:36 18:19:01 31° 264° (W) 18:22:28 145.860 - 145.880
AAUSAT CUBESAT 2 23 Jan 18:19:34 18:22:48 23° 65° (ENE) 18:26:02 437.432
ZACube-1 23 Jan 18:26:34 18:30:02 22° 63° (ENE) 18:33:33 437.345
CUTE-I 23 Jan 18:31:13 18:36:12 40° 262° (W) 18:41:12 437.470
AO-73 23 Jan 18:31:34 18:35:01 22° 63° (ENE) 18:38:31 145.935
XW-2B 23 Jan 18:33:54 18:36:52 21° 267° (W) 18:39:51 145.730 - 145.750
STRAND 1 23 Jan 18:34:33 18:36:48 13° 86° (E) 18:39:03 437.568
AO-85 23 Jan 18:35:50 18:39:57 27° 36° (NE) 18:44:18 145.980
KKS-1 23 Jan 18:41:57 18:46:12 45° 291° (WNW) 18:50:27 437.445
SEEDS 23 Jan 18:45:31 18:49:44 89° 89° (E) 18:53:58 437.485
BEESAT 2 23 Jan 18:48:30 18:52:31 68° 235° (SW) 18:56:27 435.950
STARS 23 Jan 18:49:33 18:54:00 87° 287° (WNW) 18:58:26 437.465
Oscar 11 23 Jan 19:01:27 19:05:04 26° 65° (ENE) 19:08:41 .
CUTE 1.7 + AOD 2 23 Jan 19:04:07 19:08:05 37° 263° (W) 19:12:04 437.475
XW-2A 23 Jan 19:12:00 19:15:22 61° 74° (ENE) 19:18:46 145.665 - 145.685
HO-68 23 Jan 19:14:45 19:21:30 44° 262° (W) 19:28:18 435.675
FO-29 23 Jan 19:24:00 19:27:08 16° 88° (E) 19:30:17 435.910
nSIGHT-1 23 Jan 19:30:12 19:32:16 16° 138° (SE) 19:34:20 .
RS-15 23 Jan 19:37:42 19:44:33 18° 265° (W) 19:51:15 29.354- 29.394
NO-84 23 Jan 19:39:10 19:41:28 21° 355° (N) 19:43:44 435.350 FM
UWE-3 23 Jan 19:44:40 19:48:55 40° 263° (W) 19:53:16 435.000/436.395/437.385
CUBEBUG 2 23 Jan 19:46:15 19:49:52 24° 268° (W) 19:53:37 437.445
AAUSAT CUBESAT 2 23 Jan 19:54:10 19:58:02 39° 263° (W) 20:01:56 437.432
ISS 23 Jan 19:54:48 19:57:11 19° 139° (SE) 19:59:36 437.550
PCSat 23 Jan 19:58:44 20:02:25 19° 254° (WSW) 20:06:05 145.827
ZACube-1 23 Jan 20:01:37 20:05:59 50° 262° (W) 20:10:27 437.345
DELFI C3 23 Jan 20:04:16 20:07:15 21° 65° (ENE) 20:10:15 145.870
AO-73 23 Jan 20:06:33 20:10:55 50° 261° (W) 20:15:23 145.935
Max Valier Satellite 23 Jan 20:08:06 20:10:22 16° 62° (ENE) 20:12:39 145.860
STRAND 1 23 Jan 20:11:34 20:16:45 86° 105° (ESE) 20:21:55 437.568
AO-85 23 Jan 20:15:54 20:20:47 70° 235° (SW) 20:25:59 145.980
EO-88 23 Jan 20:20:13 20:22:10 14° 62° (ENE) 20:24:07 145.990 - 145.960
SEEDS 23 Jan 20:25:55 20:26:02 10° 274° (W) 20:26:10 437.485
STARS 23 Jan 20:27:45 20:29:39 13° 304° (NW) 20:31:32 437.465
Oscar 11 23 Jan 20:37:00 20:41:03 37° 263° (W) 20:45:07 .
UNISAT 6 23 Jan 20:52:40 20:54:46 13° 87° (E) 20:56:53 437.425
nSIGHT-1 23 Jan 21:04:52 21:08:02 82° 158° (SSE) 21:11:12 .
FO-29 23 Jan 21:07:43 21:12:56 73° 288° (WNW) 21:18:10 435.910
NO-84 23 Jan 21:16:42 21:19:14 28° 16° (NNE) 21:21:46 435.350 FM
ISS 23 Jan 21:30:03 21:33:19 90° 166° (SSE) 21:36:36 437.550
LO-87 23 Jan 21:30:31 21:32:01 12° 61° (ENE) 21:33:29 145.935 - 145.965
DELFI C3 23 Jan 21:38:08 21:41:46 37° 263° (W) 21:45:26 145.870
Max Valier Satellite 23 Jan 21:40:10 21:43:48 50° 260° (W) 21:47:29 145.860
ESTCUBE 1 23 Jan 21:42:46 21:45:53 19° 60° (ENE) 21:49:00 437.505/2401.250
EO-88 23 Jan 21:51:48 21:55:22 55° 259° (W) 21:58:59 145.990 - 145.960
STRAND 1 23 Jan 21:52:05 21:55:15 17° 304° (NW) 21:58:27 437.568
AO-85 23 Jan 21:58:44 22:00:28 12° 252° (WSW) 22:02:15 145.980
TIGRISAT 23 Jan 22:11:13 22:15:55 63° 101° (ESE) 22:20:34 435.000
UNISAT 6 23 Jan 22:27:21 22:32:06 85° 283° (WNW) 22:36:47 437.425
YUBILEINY 23 Jan 22:31:20 22:39:36 48° 88° (E) 22:47:51 435.215
SPROUT 23 Jan 22:39:19 22:42:00 16° 60° (ENE) 22:44:41 437.525
nSIGHT-1 23 Jan 22:41:19 22:44:22 44° 356° (N) 22:47:27 .
NO-84 23 Jan 22:53:44 22:56:31 55° 217° (SW) 22:59:21 435.350 FM
FO-29 23 Jan 22:55:06 22:57:08 12° 309° (NW) 22:59:11 435.910
LO-87 23 Jan 23:01:22 23:04:54 63° 259° (W) 23:08:29 145.935 - 145.965
VELOX 1 23 Jan 23:05:24 23:08:22 18° 60° (ENE) 23:11:20 145.980
ISS 23 Jan 23:06:50 23:10:01 44° 358° (N) 23:13:10 437.550
EO-79 23 Jan 23:14:59 23:16:40 12° 88° (E) 23:18:21 145.935-145.965
ESTCUBE 1 23 Jan 23:17:46 23:22:15 61° 259° (WSW) 23:26:44 437.505/2401.250
PRISM 23 Jan 23:19:13 23:23:19 76° 103° (ESE) 23:27:24 437.425
O/OREOS (USA 219) 23 Jan 23:19:24 23:22:17 17° 100° (E) 23:25:10 437.305
TIGRISAT 23 Jan 23:48:49 23:52:09 19° 299° (WNW) 23:55:27 435.000
POLYITAN 1 23 Jan 23:49:17 23:52:56 26° 94° (E) 23:56:33 437.675
AIST 2D 23 Jan 23:56:34 00:00:02 73° 285° (WNW) 00:03:29 435.315
NANOSAT C BR1 24 Jan 00:01:49 00:05:39 31° 96° (E) 00:09:26 145.865
UNISAT 6 24 Jan 00:05:48 00:08:04 14° 304° (WNW) 00:10:20 437.425
SPROUT 24 Jan 00:13:12 00:17:25 63° 259° (WSW) 00:21:40 437.525
nSIGHT-1 24 Jan 00:17:41 00:20:50 61° 16° (NNE) 00:23:59 .
QB50P2 24 Jan 00:18:54 00:23:10 58° 101° (E) 00:27:23 145.880/145.840
YUBILEINY 24 Jan 00:28:04 00:36:27 46° 290° (WNW) 00:44:51 435.215
UKube-1 24 Jan 00:29:34 00:32:21 17° 60° (ENE) 00:35:10 .
VELOX 1 24 Jan 00:40:04 00:44:23 59° 258° (WSW) 00:48:44 145.980
DUCHIFAT 1 24 Jan 00:43:26 00:47:42 72° 102° (ESE) 00:51:56 145.980
ISS 24 Jan 00:43:31 00:46:47 66° 18° (NNE) 00:50:02 437.550
DX 1 24 Jan 00:46:41 00:50:38 37° 67° (ENE) 00:54:38 434.975-435.025
EO-79 24 Jan 00:48:40 00:52:59 78° 285° (WNW) 00:57:15 145.935-145.965
PRISM 24 Jan 00:56:03 00:58:02 13° 301° (WNW) 01:00:00 437.425
50 SAT 24 Jan 00:56:24 00:59:11 31° 70° (ENE) 01:01:59 437.505
O/OREOS (USA 219) 24 Jan 00:56:45 01:01:12 61° 299° (WNW) 01:05:40 437.305
POLYITAN 1 24 Jan 01:24:51 01:28:46 35° 292° (WNW) 01:32:40 437.675
MOZHAYETS 4 24 Jan 01:25:42 01:29:05 20° 61° (ENE) 01:32:29
ITUPSAT 1 24 Jan 01:25:46 01:28:13 14° 55° (NE) 01:30:39 437.325
BUGSAT 1 24 Jan 01:32:25 01:36:38 57° 101° (E) 01:40:49 437.445
NANOSAT C BR1 24 Jan 01:37:34 01:41:18 30° 294° (WNW) 01:45:00 145.865
AO-91 24 Jan 01:42:58 01:47:25 54° 101° (E) 01:52:18 145.960
nSIGHT-1 24 Jan 01:53:58 01:56:53 33° 214° (SW) 01:59:47 .
Oscar 19 24 Jan 01:54:35 01:59:42 56° 101° (E) 02:04:44 437.125/150
QB50P2 24 Jan 01:55:39 01:58:32 18° 299° (WNW) 02:01:24 145.880/145.840
BEESAT 24 Jan 02:01:20 02:05:19 27° 63° (ENE) 02:09:19 436.000
UKube-1 24 Jan 02:03:41 02:07:56 61° 259° (WSW) 02:12:13 .
Gurwin Techsat 1B 24 Jan 02:05:34 02:10:48 54° 100° (E) 02:15:59 435.225
ISS 24 Jan 02:20:11 02:23:06 30° 216° (SW) 02:26:01 437.550
DUCHIFAT 1 24 Jan 02:20:25 02:22:50 15° 301° (WNW) 02:25:13 145.980
DX 1 24 Jan 02:23:18 02:26:54 25° 265° (W) 02:30:32 434.975-435.025
EO-79 24 Jan 02:26:54 02:27:58 11° 304° (NW) 02:29:03 145.935-145.965
50 SAT 24 Jan 02:29:09 02:30:59 15° 267° (W) 02:32:50 437.505
AO-7 24 Jan 02:30:55 02:36:39 20° 88° (E) 02:42:19 .
YUBILEINY 24 Jan 02:33:10 02:36:08 12° 317° (NW) 02:39:06 435.215
O/OREOS (USA 219) 24 Jan 02:39:59 02:41:35 12° 320° (NW) 02:43:11 437.305
ITUPSAT 1 24 Jan 03:00:31 03:05:18 86° 73° (ENE) 03:10:08 437.325
MOZHAYETS 4 24 Jan 03:01:16 03:05:51 57° 260° (W) 03:10:27
BUGSAT 1 24 Jan 03:08:42 03:11:34 18° 299° (WNW) 03:14:26 437.445
ITAMSAT 1 24 Jan 03:08:51 03:12:06 16° 89° (E) 03:15:21 435.822/435.867
CUBESAT XI-V 24 Jan 03:12:48 03:17:22 53° 71° (ENE) 03:21:55 437.345
AO-91 24 Jan 03:20:11 03:23:37 22° 296° (WNW) 03:27:16 145.960
Oscar 19 24 Jan 03:34:33 03:38:39 24° 300° (WNW) 03:42:44 437.125/150
BEESAT 24 Jan 03:38:22 03:42:54 43° 261° (W) 03:47:28 436.000
Gurwin Techsat 1B 24 Jan 03:46:05 03:50:26 26° 299° (WNW) 03:54:45 435.225
SO-50 24 Jan 03:51:58 03:53:18 11° 108° (ESE) 03:54:39 436.795
KKS-1 24 Jan 04:07:10 04:11:05 32° 66° (ENE) 04:15:02 437.445
STARS 24 Jan 04:14:54 04:17:47 17° 60° (ENE) 04:20:41 437.465
AO-7 24 Jan 04:22:14 04:30:41 82° 110° (ESE) 04:39:02 .
FALCONSAT 3 24 Jan 04:28:56 04:29:52 11° 175° (S) 04:30:49 435.103
ITUPSAT 1 24 Jan 04:41:35 04:43:47 13° 273° (W) 04:45:59 437.325
M-CUBED/EXP-1 PRIME 24 Jan 04:46:48 04:48:29 13° 97° (E) 04:50:09 437.505
ITAMSAT 1 24 Jan 04:46:56 04:52:09 77° 288° (WNW) 04:57:22 435.822/435.867
CUBESAT XI-V 24 Jan 04:51:35 04:55:02 20° 269° (W) 04:58:29 437.345
DOVE 4 24 Jan 05:08:12 05:12:32 58° 101° (E) 05:17:06 437.250
SO-50 24 Jan 05:28:29 05:32:56 79° 128° (SE) 05:37:31 436.795
XW-2F 24 Jan 05:32:27 05:34:20 13° 89° (E) 05:36:12 145.980 - 146.000
FO-29 24 Jan 05:41:29 05:44:47 15° 54° (NE) 05:47:55 435.910
KKS-1 24 Jan 05:43:43 05:47:38 31° 264° (W) 05:51:34 437.445
XW-2D 24 Jan 05:44:21 05:47:12 20° 93° (E) 05:50:01 145.860 - 145.880
RS-15 24 Jan 05:45:32 05:50:55 14° 92° (E) 05:56:14 29.354- 29.394
STARS 24 Jan 05:49:21 05:53:40 62° 258° (WSW) 05:58:02 437.465
STRAND 1 24 Jan 05:53:05 05:57:21 28° 62° (ENE) 06:01:38 437.568
XW-2B 24 Jan 06:01:44 06:05:04 29° 96° (E) 06:08:22 145.730 - 145.750
AO-7 24 Jan 06:15:44 06:22:40 30° 310° (NW) 06:29:34 .
M-CUBED/EXP-1 PRIME 24 Jan 06:19:59 06:23:11 42° 295° (WNW) 06:26:16 437.505
SEEDS 24 Jan 06:27:31 06:28:57 11° 87° (E) 06:30:22 437.485
ITAMSAT 1 24 Jan 06:28:09 06:30:47 14° 307° (NW) 06:33:25 435.822/435.867
XW-2C 24 Jan 06:32:02 06:35:48 68° 102° (ESE) 06:39:31 145.795 - 145.815
LilacSat-2 24 Jan 06:34:12 06:38:00 78° 101° (ESE) 06:41:45 437.200
HO-68 24 Jan 06:37:59 06:44:18 32° 94° (E) 06:50:34 435.675
CUTE-I 24 Jan 06:43:50 06:49:08 61° 102° (ESE) 06:54:25 437.470
CUTE 1.7 + AOD 2 24 Jan 06:45:03 06:48:43 28° 94° (E) 06:52:20 437.475
DOVE 4 24 Jan 06:46:52 06:49:53 18° 298° (WNW) 06:52:58 437.250
KAITUO 1B 24 Jan 06:57:16 07:00:59 86° 285° (WNW) 07:04:39 145.475/437.950
NUDT-PHONESAT 24 Jan 07:01:55 07:05:36 81° 285° (WNW) 07:09:14 437.300
XW-2F 24 Jan 07:05:06 07:08:46 53° 287° (WNW) 07:12:23 145.980 - 146.000
SO-50 24 Jan 07:10:20 07:13:57 23° 328° (NNW) 07:17:36 436.795
XW-2D 24 Jan 07:18:01 07:21:28 35° 291° (WNW) 07:24:53 145.860 - 145.880
FO-29 24 Jan 07:22:35 07:29:07 73° 72° (ENE) 07:34:54 435.910
UWE-3 24 Jan 07:30:16 07:34:31 33° 95° (E) 07:38:42 435.000/436.395/437.385
STRAND 1 24 Jan 07:31:25 07:36:19 47° 261° (W) 07:41:15 437.568
CUBEBUG 2 24 Jan 07:31:53 07:36:37 59° 100° (E) 07:41:17 437.445
AAUSAT CUBESAT 2 24 Jan 07:32:25 07:35:46 24° 93° (E) 07:39:06 437.432
XW-2B 24 Jan 07:36:03 07:39:08 24° 293° (WNW) 07:42:11 145.730 - 145.750
TIGRISAT 24 Jan 07:39:44 07:41:34 12° 55° (NE) 07:43:25 435.000
O/OREOS (USA 219) 24 Jan 07:46:17 07:47:53 12° 40° (NE) 07:49:29 437.305
ZACube-1 24 Jan 07:46:23 07:50:13 26° 93° (E) 07:54:00 437.345
RS-15 24 Jan 07:48:41 08:00:33 58° 115° (ESE) 08:12:13 29.354- 29.394
AO-73 24 Jan 07:51:00 07:54:47 26° 93° (E) 07:58:30 145.935
UNISAT 6 24 Jan 07:54:34 07:57:35 18° 60° (ENE) 08:00:39 437.425
SEEDS 24 Jan 08:00:59 08:05:10 77° 285° (WNW) 08:09:19 437.485
XW-2A 24 Jan 08:02:21 08:05:30 36° 98° (E) 08:08:37 145.665 - 145.685
XW-2C 24 Jan 08:07:50 08:09:27 12° 300° (WNW) 08:11:04 145.795 - 145.815
LilacSat-2 24 Jan 08:10:30 08:11:41 11° 301° (WNW) 08:12:51 437.200
AO-7 24 Jan 08:11:40 08:12:43 10° 336° (NNW) 08:13:46 .
Oscar 11 24 Jan 08:20:16 08:24:07 30° 95° (E) 08:27:55 .
CUTE 1.7 + AOD 2 24 Jan 08:20:49 08:24:33 31° 293° (WNW) 08:28:15 437.475
CUTE-I 24 Jan 08:24:38 08:28:47 24° 301° (WNW) 08:32:55 437.470
HO-68 24 Jan 08:25:23 08:32:25 59° 294° (WNW) 08:39:24 435.675
YUBILEINY 24 Jan 08:36:38 08:44:01 29° 61° (ENE) 08:51:20 435.215
PRISM 24 Jan 08:39:50 08:40:54 11° 56° (ENE) 08:41:59 437.425
SO-50 24 Jan 08:54:48 08:56:06 11° 352° (N) 08:57:24 436.795
PCSat 24 Jan 08:59:46 09:04:33 33° 112° (ESE) 09:09:22 145.827
UWE-3 24 Jan 09:06:45 09:10:55 32° 294° (WNW) 09:15:01 435.000/436.395/437.385
AAUSAT CUBESAT 2 24 Jan 09:07:33 09:11:18 35° 291° (WNW) 09:15:02 437.432
Max Valier Satellite 24 Jan 09:07:56 09:09:15 11° 88° (E) 09:10:33 145.860
CUBEBUG 2 24 Jan 09:09:17 09:12:48 21° 298° (WNW) 09:16:18 437.445
FO-29 24 Jan 09:09:53 09:14:39 21° 269° (W) 09:19:04 435.910
DELFI C3 24 Jan 09:11:15 09:14:12 20° 92° (E) 09:17:08 145.870
TIGRISAT 24 Jan 09:12:59 09:17:27 81° 76° (ENE) 09:22:05 435.000
ZACube-1 24 Jan 09:22:21 09:26:36 39° 292° (WNW) 09:30:46 437.345
BEESAT 3 24 Jan 09:22:46 09:26:42 61° 124° (SE) 09:30:39 437.485
O/OREOS (USA 219) 24 Jan 09:23:48 09:28:16 62° 61° (ENE) 09:32:42 437.305
AO-73 24 Jan 09:26:54 09:31:08 39° 291° (WNW) 09:35:17 145.935
UNISAT 6 24 Jan 09:29:20 09:33:48 65° 259° (W) 09:38:23 437.425
XW-2A 24 Jan 09:35:46 09:37:55 16° 296° (WNW) 09:40:03 145.665 - 145.685
SEEDS 24 Jan 09:40:04 09:40:05 10° 304° (NW) 09:40:06 437.485
Oscar 11 24 Jan 09:56:24 10:00:12 31° 294° (WNW) 10:04:00 .
RS-15 24 Jan 10:01:02 10:13:12 60° 321° (NW) 10:25:05 29.354- 29.394
DUCHIFAT 1 24 Jan 10:06:08 10:07:24 11° 56° (NE) 10:08:39 145.980
EO-79 24 Jan 10:10:29 10:13:01 16° 60° (ENE) 10:15:35 145.935-145.965
PRISM 24 Jan 10:11:26 10:15:29 86° 81° (E) 10:19:34 437.425
HO-68 24 Jan 10:14:49 10:18:45 16° 316° (NW) 10:22:41 435.675
BEESAT 2 24 Jan 10:19:25 10:23:24 64° 124° (ESE) 10:27:25 435.950
YUBILEINY 24 Jan 10:33:03 10:41:46 76° 265° (W) 10:50:25 435.215
AIST 2D 24 Jan 10:33:29 10:36:58 67° 75° (ENE) 10:40:28 435.315
AO-85 24 Jan 10:35:56 10:38:05 14° 109° (ESE) 10:40:18 145.980
SO-50 24 Jan 10:36:17 10:38:35 13° 18° (NNE) 10:40:54 436.795
Max Valier Satellite 24 Jan 10:39:47 10:43:28 62° 286° (WNW) 10:47:05 145.860
PCSat 24 Jan 10:42:33 10:47:47 48° 312° (NW) 10:53:03 145.827
POLYITAN 1 24 Jan 10:44:57 10:48:43 31° 67° (ENE) 10:52:32 437.675
DELFI C3 24 Jan 10:45:24 10:49:04 39° 290° (WNW) 10:52:44 145.870
EO-88 24 Jan 10:49:53 10:53:30 72° 286° (WNW) 10:57:07 145.990 - 145.960
TIGRISAT 24 Jan 10:52:48 10:54:47 13° 274° (W) 10:56:47 435.000
NANOSAT C BR1 24 Jan 10:56:57 11:00:50 36° 68° (ENE) 11:04:45 145.865
BEESAT 3 24 Jan 11:01:21 11:04:33 22° 324° (NW) 11:07:45 437.485
O/OREOS (USA 219) 24 Jan 11:04:20 11:07:11 17° 260° (W) 11:10:01 437.305
ESTCUBE 1 24 Jan 11:06:58 11:10:26 22° 92° (E) 11:13:53 437.505/2401.250
QB50P2 24 Jan 11:14:28 11:18:41 69° 74° (ENE) 11:22:57 145.880/145.840
Oscar 19 24 Jan 11:37:41 11:41:23 20° 58° (ENE) 11:45:07 437.125/150
DUCHIFAT 1 24 Jan 11:38:06 11:42:20 82° 73° (ENE) 11:46:35 145.980
EO-79 24 Jan 11:44:04 11:48:17 67° 258° (WSW) 11:52:33 145.935-145.965
AO-7 24 Jan 11:46:45 11:50:25 14° 32° (NNE) 11:54:06 .
Gurwin Techsat 1B 24 Jan 11:52:21 11:56:15 21° 58° (ENE) 12:00:09 435.225
SPROUT 24 Jan 11:55:48 11:58:39 17° 90° (E) 12:01:30 437.525
LO-87 24 Jan 11:57:27 12:01:06 86° 283° (WNW) 12:04:44 145.935 - 145.965
BEESAT 2 24 Jan 11:58:14 12:01:28 22° 324° (NW) 12:04:43 435.950
AO-85 24 Jan 12:13:46 12:17:48 74° 309° (NW) 12:22:12 145.980
SO-50 24 Jan 12:16:01 12:20:22 36° 41° (NE) 12:24:45 436.795
RS-15 24 Jan 12:17:43 12:28:43 36° 353° (N) 12:39:20 29.354- 29.394
POLYITAN 1 24 Jan 12:20:46 12:24:30 29° 265° (W) 12:28:15 437.675
BUGSAT 1 24 Jan 12:25:07 12:29:10 63° 72° (ENE) 12:33:19 437.445
VELOX 1 24 Jan 12:26:48 12:30:01 19° 92° (E) 12:33:12 145.980
PCSat 24 Jan 12:29:18 12:32:32 16° 335° (NNW) 12:35:47 145.827
YUBILEINY 24 Jan 12:31:52 12:37:00 17° 287° (WNW) 12:42:08 435.215
NANOSAT C BR1 24 Jan 12:33:07 12:36:37 25° 266° (W) 12:40:09 145.865
ESTCUBE 1 24 Jan 12:43:10 12:47:28 46° 290° (WNW) 12:51:44 437.505/2401.250
AO-91 24 Jan 12:44:30 12:47:52 59° 74° (ENE) 12:51:29 145.960
QB50P2 24 Jan 12:52:48 12:54:57 14° 271° (W) 12:57:07 145.880/145.840
Oscar 19 24 Jan 13:15:00 13:20:11 72° 257° (WSW) 13:25:25 437.125/150
DUCHIFAT 1 24 Jan 13:17:19 13:18:34 11° 273° (W) 13:19:49 145.980
Gurwin Techsat 1B 24 Jan 13:30:24 13:35:41 70° 257° (WSW) 13:41:01 435.225
SPROUT 24 Jan 13:30:39 13:34:52 55° 289° (WNW) 13:39:03 437.525
AO-7 24 Jan 13:33:22 13:41:00 42° 56° (NE) 13:48:39 .
50 SAT 24 Jan 13:39:08 13:40:58 15° 93° (E) 13:42:47 437.505
UKube-1 24 Jan 13:47:46 13:50:32 17° 91° (E) 13:53:18 .
AO-85 24 Jan 13:56:06 13:59:02 18° 333° (NNW) 14:02:07 145.980
SO-50 24 Jan 13:56:28 14:00:54 42° 240° (WSW) 14:05:23 436.795
VELOX 1 24 Jan 14:02:27 14:06:43 50° 290° (WNW) 14:10:59 145.980
BUGSAT 1 24 Jan 14:02:45 14:04:58 14° 271° (W) 14:07:11 437.445
DX 1 24 Jan 14:06:43 14:10:50 40° 98° (E) 14:14:55 434.975-435.025
